YBBNYBCG

Guest
Details From YBBN - Brisbane Intl
To YBCG - Gold Coast International
Flight Number -
Tags generated
Created
Modified
Stats Distance 52 nm / 96 km
Max Altitude 5,500 ft / 1,676 m
Waypoints 3
Social Downloads 4
Likes 0
Share VATSIM

Download

Looking for another format? Having issues loading an existing format? Contact us
Advertisement - Login to hide

Notes

Basic altitude profile: - Ascent Rate: 2500ft/min - Ascent Speed: 250kts - Cruise Altitude: 35000ft - Cruise Speed: 420kts - Descent Rate: 1500ft/min - Descent Speed: 250kts Options: - Use NATs: yes - Use PACOTS: yes - Use low airways: yes - Use high airways: no

Route

YBBN JCW YBCG

ID Type Via Altitude Latitude Longitude Leg Dist Tot Dist Heading (true) Name
O YBBN APT - 0 ft / 0 m -27.37571˚ 153.12771˚ - 0 nm - Brisbane Intl
JCW VOR - 5,500 ft / 1,676 m -27.76139˚ 153.33444˚ 25 nm 25 nm 155° / 155° JACOBS WELL VOR
O YBCG APT - 0 ft / 0 m -28.16604˚ 153.50616˚ 25 nm 51 nm 159° / 159° Gold Coast International

Altitude Profile

Advertisement - Login to hide

YBBN

Details ICAO YBBN (BNE)
Name Brisbane Intl
Region Australia
Timezone Australia/Brisbane (UTC+10.0)
Stats Elevation 12 ft / 4 m (AMSL)
Location -27.375714° 153.127710°
Runways 2
Magnetic Variation 10.985° E

METAR

YBBN 200500Z 11013KT 9999 FEW044 29/16 Q1011 NOSIG

Decode

TAF

TAF YBBN 192245Z 2000/2106 15010KT 9999 FEW025 FM200200 10014KT 9999 FEW030 FM201200 15010KT 9999 FEW025 FM201500 20008KT 9999 FEW025 SCT050 FM202200 15010KT 9999 -SHRA BKN025 BKN050 FM210200 10014KT 9999 SCT030 SCT060

Decode

Departure Runways

ID Width Length Bearing (true) Bearing (mag) Surface Threshold Offset Overrun Length
01 148 ft / 45 m 11,805 ft / 3,598 m 26.93° 15.94° Asphalt 197 ft / 60 m 0 ft / 0 m
14 98 ft / 30 m 5,787 ft / 1,764 m 145.66° 134.67° Asphalt 197 ft / 60 m 0 ft / 0 m
19 148 ft / 45 m 11,805 ft / 3,598 m 206.92° 195.93° Asphalt 0 ft / 0 m 0 ft / 0 m
32 98 ft / 30 m 5,787 ft / 1,764 m 325.66° 314.67° Asphalt 197 ft / 60 m 0 ft / 0 m

YBCG

Details ICAO YBCG (OOL)
Name Gold Coast International
Region Australia
Timezone Australia/Brisbane (UTC+10.0)
Stats Elevation 20 ft / 6 m (AMSL)
Location -28.166035° 153.506155°
Runways 2
Magnetic Variation 11.331° E

METAR

YBCG 200500Z AUTO 15017KT 9999 // NCD 28/16 Q1011

Decode

TAF

TAF YBCG 192245Z 2000/2024 17014KT 9999 FEW025 SCT040 FM200100 15018KT 9999 SCT030 SCT050 FM200800 17012KT 9999 SCT025 BKN050 FM201500 20008KT 9999 FEW025 SCT050 FM202200 17012KT 9999 -SHRA BKN025 BKN050

Decode

Destination Runways

ID Width Length Bearing (true) Bearing (mag) Surface Threshold Offset Overrun Length
14 148 ft / 45 m 7,687 ft / 2,343 m 150.04° 138.71° Asphalt 0 ft / 0 m 394 ft / 120 m
17 59 ft / 18 m 1,911 ft / 582 m 184.00° 172.67° Asphalt 0 ft / 0 m 0 ft / 0 m
32 148 ft / 45 m 7,687 ft / 2,343 m 330.04° 318.71° Asphalt 0 ft / 0 m 394 ft / 120 m
35 59 ft / 18 m 1,911 ft / 582 m 4.00° 352.67° Asphalt 0 ft / 0 m 0 ft / 0 m

Popular Alternatives